Showing default

GOES 15, 36411

Orbit data source: Space-Track

GOES 15, 36411 is a payload satellite owned by NOAA (US) in GEO that was launched on Thu, 04 Mar 2010 UTC via a DELTA 4M+(4,2) launch vehicle from the Air Force Eastern Test Range (AFETR). Payload-class satellites include a variety of spacecraft equipped with specific instruments for various scientific and technological missions. These include communications satellites like Starlink; space stations such as the ISS; scientific satellites like the Hubble; Earth observation satellites from companies like Planet Labs, Umbra, and HawkEye 360; GPS; miniature CubeSats for education and research; and military/defense satellites.

Not visible in the next 10 days
Identifier
36411, 2010-008A
Orbit
GEO
Country
Flag of USUS
Related business
Manufacturer
Boeing/ES
Mission
On reserve Civil Weather
Bus & Motor
HS-601, R-4D?
Mass
3,215 kg wet, 1,543 kg dry
Launch date (UTC)
2010-03-04 (16 years ago)
Launch vehicle
DELTA 4M+(4,2)
Launch site
Air Force Eastern Test Range (AFETR)
Object type
Payload
Rocket body
Debris
Shape & HBR
Box + 1 Pan + 1 Ant, 15.0 m
Radar Cross Section
59.640 m², Large (>1 m²)

Expand to show TLE details & history
Last TLE update: 18 hours ago

TLE from 18 hours ago
0 GOES 15
1 36411U 10008A   26013.92594571  .00000056  00000-0  00000-0 0  9999
2 36411   0.8919  85.9565 0005166 189.3582 232.7921  1.00273950 58091
Epoch: 2026-01-13T22:13Z
TLE epoch observation values (Epoch: 2026-01-13T22:13:21.709Z)
Latitude
0.80883°
Longitude
61.32802°
Altitude
35,798.636 km
Speed
3.074 km/s
True Right ascension
09h 52m 16s
True Declination
0° 48' 29"
Sunlit
Object was in daylight at epoch
Visualization orbit readout
Latitude
Unknown
Longitude
Unknown
Altitude
Unknown
Speed
Unknown
Apparent Right ascension
Unknown
Apparent Declination
Unknown
Sunlit
N/A
Visualization observer readout
Local Sidereal Time
16:41:55
Azimuth
Unknown
Elevation
Unknown
Doppler factor
Unknown
Orbital elements
Apogee altitude
35,808.841 km
Perigee altitude
35,765.276 km
Semi-major axis
42,165.195 km
Eccentricity
0.00052
Inclination
0.8919°
RAAN
85.9565°
Arg. of periapsis
189.3582°
True anomaly
232.74497°
Mean anomaly
232.7921°
Eccentric anomaly
232.76853°
Mean motion
0.25068 °/min
Orbital period
1,436.12 mins
BSTAR
0
Loading maneuver chart data...
Computing Atmospheric mass density...
Loading historical data...
Loading historical data...
Loading historical data...
Loading historical data...
Loading historical data...
Loading historical data...
Loading historical data...
Other satellites on launch #8 in the year 2010 (2010-03-04 UTC)

Documentation

Showing up to 5 results
|